When you browse on this site, cookies collect data to enhance your experience and personalize the content and advertising you see.
Visit our Privacy Policy to learn more. By continuing to use the site, you agree to this use of cookies and data.
  • In Schweiz
  • Länderverzeichnis
  • Für 7 Tage
  • Wassertemperatur
  • Wetterkarte
  • Widgets
  • user-avatar
    Anmelden

    Stündliche Wetter Canillo

    Heute, 26 August, Montag

    Zeit Temperatur Niederschläge Wind Luftdruck Luftfeuchtigkeit
    00:00 +13°C° 0 mm 1 m/S 621 mmHg 85%
    01:00 +13°C° 0 mm 1 m/S 621 mmHg 84%
    02:00 +13°C° 0 mm 1 m/S 620 mmHg 83%
    03:00 +12°C° 0 mm 1 m/S 620 mmHg 83%
    04:00 +12°C° 0 mm 1 m/S 620 mmHg 82%
    05:00 +13°C° 0 mm 1 m/S 620 mmHg 82%
    06:00 +13°C° 0 mm 1 m/S 620 mmHg 81%
    07:00 +15°C° 0 mm 1 m/S 621 mmHg 68%
    08:00 +19°C° 0 mm 1 m/S 622 mmHg 56%
    09:00 +20°C° 0 mm 2 m/S 624 mmHg 43%
    10:00 +21°C° 0 mm 2 m/S 624 mmHg 39%
    11:00 +23°C° 0 mm 2 m/S 624 mmHg 36%
    12:00 +23°C° 0 mm 2 m/S 624 mmHg 32%
    13:00 +23°C° 0 mm 2 m/S 624 mmHg 33%
    14:00 +23°C° 0 mm 2 m/S 623 mmHg 33%
    15:00 +23°C° 0 mm 2 m/S 623 mmHg 34%
    16:00 +21°C° 0 mm 2 m/S 622 mmHg 41%
    17:00 +20°C° 0 mm 1 m/S 622 mmHg 49%
    18:00 +18°C° 0 mm 1 m/S 621 mmHg 56%
    19:00 +16°C° 0 mm 1 m/S 621 mmHg 58%
    20:00 +15°C° 0 mm 1 m/S 620 mmHg 60%
    21:00 +14°C° 0 mm 1 m/S 620 mmHg 62%
    22:00 +13°C° 0 mm 1 m/S 620 mmHg 63%
    23:00 +13°C° 0 mm 1 m/S 620 mmHg 63%

    Morgen, 27 August, Dienstag

    Zeit Temperatur Niederschläge Wind Luftdruck Luftfeuchtigkeit
    00:00 +13°C° 0 mm 1 m/S 620 mmHg 64%
    01:00 +12°C° 0 mm 1 m/S 620 mmHg 65%
    02:00 +12°C° 0 mm 1 m/S 619 mmHg 67%
    03:00 +12°C° 0 mm 2 m/S 619 mmHg 68%
    04:00 +12°C° 0 mm 1 m/S 619 mmHg 66%
    05:00 +12°C° 0 mm 1 m/S 619 mmHg 64%
    06:00 +13°C° 0 mm 1 m/S 619 mmHg 62%
    07:00 +14°C° 0 mm 1 m/S 620 mmHg 60%
    08:00 +16°C° 0 mm 1 m/S 621 mmHg 58%
    09:00 +18°C° 0 mm 1 m/S 622 mmHg 55%
    10:00 +18°C° 0.3 mm 1 m/S 622 mmHg 60%
    11:00 +18°C° 0.3 mm 1 m/S 622 mmHg 64%
    12:00 +16°C° 0.3 mm 1 m/S 621 mmHg 68%
    13:00 +18°C° 0.1 mm 1 m/S 621 mmHg 63%
    14:00 +19°C° 0.1 mm 1 m/S 622 mmHg 59%
    15:00 +20°C° 0.1 mm 1 m/S 622 mmHg 55%
    16:00 +19°C° 0.5 mm 1 m/S 621 mmHg 64%
    17:00 +16°C° 0.5 mm 1 m/S 620 mmHg 72%
    18:00 +14°C° 0.5 mm 0 m/S 620 mmHg 81%
    19:00 +13°C° 0.2 mm 0 m/S 620 mmHg 82%
    20:00 +13°C° 0.2 mm 1 m/S 620 mmHg 83%
    21:00 +13°C° 0.2 mm 1 m/S 620 mmHg 85%
    22:00 +12°C° 0 mm 1 m/S 620 mmHg 84%
    23:00 +12°C° 0 mm 1 m/S 620 mmHg 84%

    übermorgen, 28 August, Mittwoch

    Zeit Temperatur Niederschläge Wind Luftdruck Luftfeuchtigkeit
    00:00 +12°C° 0 mm 1 m/S 620 mmHg 84%
    01:00 +11°C° 0 mm 1 m/S 620 mmHg 85%
    02:00 +11°C° 0 mm 1 m/S 619 mmHg 85%
    03:00 +11°C° 0 mm 1 m/S 619 mmHg 86%
    04:00 +11°C° 0 mm 1 m/S 619 mmHg 85%
    05:00 +11°C° 0 mm 1 m/S 619 mmHg 84%
    06:00 +11°C° 0 mm 1 m/S 620 mmHg 83%
    07:00 +14°C° 0 mm 1 m/S 621 mmHg 75%
    08:00 +16°C° 0 mm 1 m/S 622 mmHg 67%
    09:00 +20°C° 0 mm 1 m/S 623 mmHg 59%
    10:00 +20°C° 0.3 mm 1 m/S 623 mmHg 59%
    11:00 +20°C° 0.3 mm 1 m/S 623 mmHg 60%
    12:00 +19°C° 0.3 mm 2 m/S 623 mmHg 60%
    13:00 +20°C° 0.6 mm 1 m/S 622 mmHg 64%
    14:00 +19°C° 0.6 mm 1 m/S 622 mmHg 69%
    15:00 +19°C° 0.6 mm 1 m/S 621 mmHg 73%
    16:00 +18°C° 0.7 mm 1 m/S 621 mmHg 78%
    17:00 +15°C° 0.7 mm 1 m/S 621 mmHg 83%
    18:00 +14°C° 0.7 mm 1 m/S 620 mmHg 87%
    19:00 +14°C° 0.5 mm 1 m/S 620 mmHg 89%
    20:00 +14°C° 0.5 mm 1 m/S 621 mmHg 90%
    21:00 +13°C° 0.5 mm 1 m/S 621 mmHg 91%
    22:00 +13°C° 0 mm 1 m/S 621 mmHg 91%
    23:00 +12°C° 0 mm 1 m/S 621 mmHg 91%

    29 August, Donnerstag

    Zeit Temperatur Niederschläge Wind Luftdruck Luftfeuchtigkeit
    00:00 +12°C° 0 mm 1 m/S 621 mmHg 90%
    01:00 +12°C° 0 mm 1 m/S 621 mmHg 90%
    02:00 +11°C° 0 mm 1 m/S 621 mmHg 89%
    03:00 +11°C° 0 mm 1 m/S 621 mmHg 88%
    04:00 +11°C° 0 mm 1 m/S 621 mmHg 87%
    05:00 +11°C° 0 mm 1 m/S 621 mmHg 85%
    06:00 +11°C° 0 mm 1 m/S 621 mmHg 83%
    07:00 +14°C° 0 mm 1 m/S 622 mmHg 74%
    08:00 +18°C° 0 mm 1 m/S 623 mmHg 64%
    09:00 +21°C° 0 mm 1 m/S 625 mmHg 55%
    10:00 +22°C° 0 mm 1 m/S 625 mmHg 51%
    11:00 +23°C° 0 mm 1 m/S 625 mmHg 48%
    12:00 +24°C° 0 mm 1 m/S 626 mmHg 45%
    13:00 +23°C° 0.4 mm 1 m/S 625 mmHg 52%
    14:00 +22°C° 0.4 mm 1 m/S 624 mmHg 58%
    15:00 +21°C° 0.4 mm 1 m/S 624 mmHg 65%
    16:00 +19°C° 0.9 mm 1 m/S 623 mmHg 71%
    17:00 +18°C° 0.9 mm 1 m/S 622 mmHg 78%
    18:00 +16°C° 0.9 mm 1 m/S 622 mmHg 84%
    19:00 +15°C° 0.4 mm 1 m/S 622 mmHg 85%
    20:00 +14°C° 0.4 mm 1 m/S 622 mmHg 86%
    21:00 +13°C° 0.4 mm 1 m/S 622 mmHg 87%
    22:00 +13°C° 0.2 mm 1 m/S 622 mmHg 87%
    23:00 +13°C° 0.2 mm 1 m/S 622 mmHg 86%

    30 August, Freitag

    Zeit Temperatur Niederschläge Wind Luftdruck Luftfeuchtigkeit
    00:00 +12°C° 0.2 mm 1 m/S 621 mmHg 85%
    01:00 +12°C° 0.1 mm 1 m/S 621 mmHg 83%
    02:00 +12°C° 0.1 mm 1 m/S 621 mmHg 82%
    03:00 +12°C° 0.1 mm 1 m/S 621 mmHg 80%
    04:00 +12°C° 0 mm 1 m/S 621 mmHg 79%
    05:00 +12°C° 0 mm 1 m/S 621 mmHg 78%
    06:00 +12°C° 0 mm 1 m/S 621 mmHg 77%
    07:00 +15°C° 0 mm 1 m/S 623 mmHg 68%
    08:00 +19°C° 0 mm 1 m/S 624 mmHg 59%
    09:00 +20°C° 0 mm 0 m/S 625 mmHg 50%
    10:00 +23°C° 0.1 mm 1 m/S 625 mmHg 48%
    11:00 +23°C° 0.1 mm 1 m/S 625 mmHg 45%
    12:00 +24°C° 0.1 mm 1 m/S 625 mmHg 43%
    13:00 +23°C° 0.9 mm 1 m/S 624 mmHg 52%
    14:00 +22°C° 0.9 mm 1 m/S 623 mmHg 60%
    15:00 +20°C° 0.9 mm 1 m/S 622 mmHg 69%
    16:00 +19°C° 1.9 mm 1 m/S 622 mmHg 75%
    17:00 +16°C° 1.9 mm 1 m/S 621 mmHg 82%
    18:00 +14°C° 1.9 mm 1 m/S 620 mmHg 89%
    19:00 +14°C° 0.1 mm 1 m/S 620 mmHg 87%
    20:00 +13°C° 0.1 mm 1 m/S 620 mmHg 85%
    21:00 +13°C° 0.1 mm 1 m/S 620 mmHg 83%
    22:00 +13°C° 0 mm 1 m/S 620 mmHg 81%
    23:00 +13°C° 0 mm 1 m/S 620 mmHg 78%

    31 August, Samstag

    Zeit Temperatur Niederschläge Wind Luftdruck Luftfeuchtigkeit
    00:00 +12°C° 0 mm 1 m/S 620 mmHg 76%
    01:00 +12°C° 0 mm 1 m/S 620 mmHg 74%
    02:00 +12°C° 0 mm 1 m/S 619 mmHg 72%
    03:00 +12°C° 0 mm 1 m/S 619 mmHg 71%
    04:00 +12°C° 0 mm 1 m/S 619 mmHg 70%
    05:00 +13°C° 0 mm 1 m/S 620 mmHg 69%
    06:00 +13°C° 0 mm 1 m/S 620 mmHg 69%
    07:00 +16°C° 0 mm 1 m/S 621 mmHg 61%
    08:00 +19°C° 0 mm 1 m/S 622 mmHg 53%
    09:00 +20°C° 0 mm 0 m/S 623 mmHg 45%
    10:00 +23°C° 0 mm 1 m/S 623 mmHg 43%
    11:00 +24°C° 0 mm 1 m/S 624 mmHg 40%
    12:00 +24°C° 0 mm 2 m/S 624 mmHg 38%
    13:00 +23°C° 0.1 mm 1 m/S 623 mmHg 44%
    14:00 +22°C° 0.1 mm 1 m/S 622 mmHg 50%
    15:00 +21°C° 0.1 mm 1 m/S 621 mmHg 57%
    16:00 +20°C° 0.4 mm 1 m/S 621 mmHg 65%
    17:00 +19°C° 0.4 mm 1 m/S 620 mmHg 72%
    18:00 +16°C° 0.4 mm 1 m/S 620 mmHg 80%
    19:00 +15°C° 0.2 mm 1 m/S 620 mmHg 81%
    20:00 +15°C° 0.2 mm 1 m/S 620 mmHg 82%
    21:00 +14°C° 0.2 mm 1 m/S 620 mmHg 83%
    22:00 +13°C° 0 mm 1 m/S 620 mmHg 83%
    23:00 +13°C° 0 mm 1 m/S 620 mmHg 82%
    Mehr zeigen